This demonstration page uses our WeatherBlox Daily Observations layout. Learn more.

41.55636, -103.73856

Hourly Observations for May 4, 2015

Temp ( °F °C ) Dew Point ( °F °C ) Humidity (%) Winds ( mph kmh ) Pressure ( in mb ) Visibility ( mi km ) Precip ( " mm )
12:53 am 00:53 Mostly Cloudy 54 12 39 4 58 58 E 10 17 30 1016 10 16.09344 0 0
1:53 am 01:53 Clear 54 12 39 4 58 58 E 8 13 30.03 1017 10 16.09344 0 0
2:53 am 02:53 Mostly Cloudy 52 11 39 4 62 62 ESE 7 11 30.03 1017 10 16.09344 0 0
3:53 am 03:53 Partly Cloudy 52 11 37 3 58 58 ESE 8 13 30.03 1017 10 16.09344 0 0
4:53 am 04:53 Cloudy 50 10 37 3 62 62 ESE 8 13 30.06 1018 10 16.09344 0 0
5:53 am 05:53 Cloudy 52 11 37 3 58 58 E 9 15 30.06 1018 10 16.09344 0 0
6:53 am 06:53 Cloudy 52 11 37 3 58 58 E 8 13 30.06 1018 10 16.09344 0 0
7:53 am 07:53 Cloudy with Light Rain 48 9 39 4 71 71 E 10 17 30.09 1019 6 9.656064 0.02 0.508
8:53 am 08:53 Cloudy 48 9 43 6 82 82 E 8 13 30.09 1019 10 16.09344 0.03 0.762
9:53 am 09:53 Cloudy 52 11 41 5 67 67 SSE 8 13 30.06 1018 10 16.09344 0 0
10:53 am 10:53 Cloudy 54 12 36 2 51 51 SE 10 17 30.09 1019 10 16.09344 0 0
11:53 am 11:53 Cloudy 54 12 36 2 51 51 ESE 15 24 30.09 1019 10 16.09344 0 0
12:53 pm 12:53 Cloudy 55 13 36 2 47 47 E 13 20 30.03 1017 10 16.09344 0 0
1:53 pm 13:53 Mostly Cloudy 59 15 36 2 42 42 ESE 16 26 30 1016 10 16.09344 0 0
2:53 pm 14:53 Mostly Cloudy 61 16 37 3 42 42 SE 12 19 30 1016 10 16.09344 0 0
3:53 pm 15:53 Mostly Cloudy 63 17 37 3 39 39 ESE 13 20 29.94 1014 10 16.09344 0 0
4:53 pm 16:53 Mostly Cloudy 61 16 37 3 42 42 ESE 18 30 29.97 1015 10 16.09344 0 0
5:53 pm 17:53 Sunny 61 16 36 2 39 39 SE 17 28 29.97 1015 10 16.09344 0 0
6:53 pm 18:53 Sunny 57 14 37 3 48 48 ESE 14 22 30 1016 10 16.09344 0 0
7:53 pm 19:53 Sunny 54 12 36 2 51 51 SE 16 26 30.03 1017 10 16.09344 0 0
8:53 pm 20:53 Clear 52 11 37 3 58 58 ESE 13 20 30.03 1017 10 16.09344 0 0
9:53 pm 21:53 Mostly Cloudy 50 10 39 4 67 67 ESE 9 15 30.09 1019 10 16.09344 0 0
10:53 pm 22:53 Cloudy 52 11 39 4 62 62 ESE 15 24 30.06 1018 10 16.09344 0 0
11:53 pm 23:53 Cloudy 50 10 41 5 71 71 SE 8 13 30.06 1018 10 16.09344 0 0

Powered by AerisWeather